M I D A S
Marine Information and Data Acquisition System
Tripno 198 of the Zeeleeuw from 2002-01-16 04:26:10 to 2002-01-16 16:04:49
Back to CruiseResearch ActivitiesStationsMapUnderway DataData graphs

EquipmentUnitsComments
TimeDGPSUTC
LatitudeDGPSDM.mWGS84
LongitudeDGPSDM.mWGS84
SpeedMeteo Stationm/sRelative wind speed
DirectionMeteo StationdegRelative wind direction
TemperatureMeteo Stationdeg CelciusAir temperature
PressureMeteo StationPaAtmospheric pressure
HumidityMeteo Station%Relative humidity
Missing or incorrect values are displayed as -999
Metereological data collected by the RV Zeeleeuw from 2002-01-16 04:26:10 to 2002-01-16 16:04:49
                                                                                    Next 1000 lines
Time Latitude Longitude Speed Direction Temperature Pressure Humidity
2002-01-16 04:26:17 51°13.689 2°55.905 3 316 5.5 101870 84
2002-01-16 04:26:23 51°13.69 2°55.905 3 316 5.5 101870 84
2002-01-16 04:26:27 51°13.69 2°55.905 3.7 302 5.5 101880 85
2002-01-16 04:26:33 51°13.69 2°55.905 3.9 326 5.5 101880 85
2002-01-16 04:26:37 51°13.69 2°55.905 3.3 336 5.5 101880 85
2002-01-16 04:26:42 51°13.689 2°55.905 3.2 330 5.5 101880 85
2002-01-16 04:26:47 51°13.689 2°55.905 3.2 324 5.5 101880 85
2002-01-16 04:26:52 51°13.69 2°55.906 3.7 309 5.5 101880 85
2002-01-16 04:26:57 51°13.689 2°55.906 2.8 298 5.5 101880 85
2002-01-16 04:27:02 51°13.689 2°55.906 3.7 294 5.5 101880 85
2002-01-16 04:27:07 51°13.689 2°55.906 4 297 5.5 101880 85
2002-01-16 04:27:13 51°13.689 2°55.906 3.5 324 5.5 101880 85
2002-01-16 04:27:17 51°13.688 2°55.906 2.8 318 5.5 101880 85
2002-01-16 04:27:22 51°13.688 2°55.906 3.7 331 5.5 101880 85
2002-01-16 04:27:27 51°13.688 2°55.906 3.2 309 5.5 101880 84
2002-01-16 04:27:33 51°13.688 2°55.905 2.4 295 5.5 101880 84
2002-01-16 04:27:37 51°13.688 2°55.905 2.5 295 5.5 101880 84
2002-01-16 04:27:43 51°13.688 2°55.905 2.8 312 5.5 101880 84
2002-01-16 04:27:47 51°13.688 2°55.905 2.7 328 5.5 101880 85
2002-01-16 04:27:53 51°13.687 2°55.905 4 310 5.5 101880 85
2002-01-16 04:27:57 51°13.687 2°55.905 3 285 5.5 101880 85
2002-01-16 04:28:02 51°13.687 2°55.905 2.7 290 5.5 101880 85
2002-01-16 04:28:07 51°13.687 2°55.905 2.9 305 5.5 101880 85
2002-01-16 04:28:13 51°13.687 2°55.905 2.7 299 5.5 101880 85
2002-01-16 04:28:18 51°13.687 2°55.905 2.8 308 5.5 101880 85
2002-01-16 04:28:23 51°13.687 2°55.905 2.8 299 5.5 101880 85
2002-01-16 04:28:27 51°13.687 2°55.905 2.8 297 5.4 101880 85
2002-01-16 04:28:33 51°13.686 2°55.905 3.1 297 5.4 101880 85
2002-01-16 04:28:38 51°13.686 2°55.905 2.8 293 5.4 101880 85
2002-01-16 04:28:42 51°13.686 2°55.905 2.8 292 5.4 101880 85
2002-01-16 04:28:47 51°13.686 2°55.905 3.5 305 5.4 101880 85
2002-01-16 04:28:52 51°13.686 2°55.905 3.3 291 5.4 101880 85
2002-01-16 04:28:57 51°13.686 2°55.905 3.6 292 5.4 101880 85
2002-01-16 04:29:02 51°13.686 2°55.905 3.8 271 5.4 101880 85
2002-01-16 04:29:07 51°13.686 2°55.905 2.8 285 5.4 101880 85
2002-01-16 04:29:12 51°13.686 2°55.904 3.7 286 5.4 101880 85
2002-01-16 04:29:17 51°13.686 2°55.904 4 286 5.4 101880 85
2002-01-16 04:29:23 51°13.686 2°55.904 4 297 5.4 101880 85
2002-01-16 04:29:27 51°13.686 2°55.904 3.8 292 5.4 101880 85
2002-01-16 04:29:33 51°13.685 2°55.904 2.9 267 5.4 101880 85
2002-01-16 04:29:37 51°13.685 2°55.904 3.2 268 5.3 101880 85
2002-01-16 04:29:43 51°13.685 2°55.904 2.9 280 5.3 101880 85
2002-01-16 04:29:47 51°13.685 2°55.904 4.2 279 5.3 101880 85
2002-01-16 04:29:53 51°13.685 2°55.904 4.8 290 5.3 101880 85
2002-01-16 04:29:57 51°13.685 2°55.904 4.3 282 5.3 101880 85
2002-01-16 04:30:03 51°13.685 2°55.903 3.8 282 5.3 101880 85
2002-01-16 04:30:07 51°13.685 2°55.902 3.6 286 5.3 101880 85
2002-01-16 04:30:12 51°13.685 2°55.901 3.9 293 5.3 101880 85
2002-01-16 04:30:18 51°13.685 2°55.897 4.1 296 5.3 101880 85
2002-01-16 04:30:23 51°13.685 2°55.894 4.2 281 5.3 101880 85
2002-01-16 04:30:27 51°13.686 2°55.89 4.9 289 5.3 101880 85
2002-01-16 04:30:34 51°13.686 2°55.881 5.2 292 5.3 101880 85
2002-01-16 04:30:38 51°13.686 2°55.876 5.7 286 5.3 101880 85
2002-01-16 04:30:43 51°13.686 2°55.868 5.8 293 5.3 101880 85
2002-01-16 04:30:48 51°13.686 2°55.86 5.2 281 5.3 101880 85
2002-01-16 04:30:53 51°13.685 2°55.851 4.2 299 5.3 101880 85
2002-01-16 04:30:58 51°13.685 2°55.843 4.6 292 5.2 101880 85
2002-01-16 04:31:03 51°13.684 2°55.836 5.2 285 5.2 101880 85
2002-01-16 04:31:08 51°13.684 2°55.828 6.2 277 5.2 101890 85
2002-01-16 04:31:14 51°13.683 2°55.819 6 283 5.2 101890 85
2002-01-16 04:31:18 51°13.683 2°55.812 5.8 280 5.2 101890 85
2002-01-16 04:31:23 51°13.682 2°55.804 4.8 273 5.2 101890 85
2002-01-16 04:31:28 51°13.682 2°55.796 4.1 275 5.2 101890 85
2002-01-16 04:31:34 51°13.68 2°55.786 4.3 289 5.2 101890 85
2002-01-16 04:31:38 51°13.68 2°55.78 5.8 278 5.2 101890 86
2002-01-16 04:31:43 51°13.679 2°55.772 6 276 5.2 101890 86
2002-01-16 04:31:48 51°13.678 2°55.765 5.2 277 5.2 101890 86
2002-01-16 04:31:53 51°13.677 2°55.758 4.4 280 5.2 101890 86
2002-01-16 04:31:58 51°13.676 2°55.751 3.6 290 5.2 101890 86
2002-01-16 04:32:03 51°13.675 2°55.745 3.1 287 5.2 101890 86
2002-01-16 04:32:08 51°13.674 2°55.739 3.4 294 5.2 101890 86
2002-01-16 04:32:11 51°13.674 2°55.736 2.4 286 5.2 101890 86
2002-01-16 04:32:17 51°13.673 2°55.732 2.6 268 5.2 101890 86
2002-01-16 04:32:23 51°13.673 2°55.731 1.6 251 5.2 101890 86
2002-01-16 04:32:26 51°13.673 2°55.731 1.3 248 5.2 101890 86
2002-01-16 04:32:33 51°13.676 2°55.734 3.5 201 5.2 101890 86
2002-01-16 04:32:38 51°13.678 2°55.737 2.4 192 5.2 101880 86
2002-01-16 04:32:43 51°13.681 2°55.74 4.7 189 5.2 101880 86
2002-01-16 04:32:47 51°13.685 2°55.742 4.3 191 5.2 101890 86
2002-01-16 04:32:53 51°13.691 2°55.745 5.6 177 5.2 101890 86
2002-01-16 04:32:57 51°13.696 2°55.746 5.7 172 5.2 101880 86
2002-01-16 04:33:03 51°13.703 2°55.745 6.1 167 5.2 101880 86
2002-01-16 04:33:07 51°13.709 2°55.743 5.9 155 5.1 101880 86
2002-01-16 04:33:13 51°13.718 2°55.74 5.2 150 5.1 101880 86
2002-01-16 04:33:18 51°13.726 2°55.735 5.6 157 5.1 101880 86
2002-01-16 04:33:22 51°13.733 2°55.73 6.2 152 5.1 101880 86
2002-01-16 04:33:27 51°13.741 2°55.722 6.3 140 5.1 101870 86
2002-01-16 04:33:33 51°13.752 2°55.713 6.8 142 5.1 101870 86
2002-01-16 04:33:38 51°13.761 2°55.704 5.3 145 5.1 101870 86
2002-01-16 04:33:43 51°13.77 2°55.695 7.8 149 5.1 101870 86
2002-01-16 04:33:47 51°13.778 2°55.688 6.7 156 5.1 101880 86
2002-01-16 04:33:53 51°13.79 2°55.676 8.5 146 5.1 101880 86
2002-01-16 04:33:58 51°13.8 2°55.667 9.5 137 5.1 101880 86
2002-01-16 04:34:03 51°13.811 2°55.658 9.9 145 5.1 101880 86
2002-01-16 04:34:07 51°13.82 2°55.651 9.3 145 5.1 101880 86
2002-01-16 04:34:12 51°13.831 2°55.641 7.6 152 5.1 101880 86
2002-01-16 04:34:17 51°13.842 2°55.632 6.7 147 5.1 101890 86
2002-01-16 04:34:22 51°13.853 2°55.623 7.2 143 5.1 101890 86
2002-01-16 04:34:27 51°13.865 2°55.614 8.5 151 5.1 101880 86
2002-01-16 04:34:32 51°13.876 2°55.605 6.8 147 5.1 101880 86
2002-01-16 04:34:38 51°13.89 2°55.594 7.7 151 5.1 101890 86
2002-01-16 04:34:43 51°13.902 2°55.585 7.4 145 5.1 101890 86
2002-01-16 04:34:47 51°13.912 2°55.578 7.5 161 5.1 101890 86
2002-01-16 04:34:52 51°13.924 2°55.568 9.3 150 5.1 101890 86
2002-01-16 04:34:57 51°13.936 2°55.559 8.1 153 5.1 101890 86
2002-01-16 04:35:02 51°13.948 2°55.551 8.9 158 5.1 101890 86
2002-01-16 04:35:07 51°13.959 2°55.542 8.6 156 5.1 101890 86
2002-01-16 04:35:12 51°13.971 2°55.533 7.4 167 5.1 101890 86
2002-01-16 04:35:18 51°13.983 2°55.524 7.5 153 5.1 101880 86
2002-01-16 04:35:22 51°13.991 2°55.518 6.9 154 5.1 101880 86
2002-01-16 04:35:27 51°14 2°55.51 6.8 148 5.1 101890 86
2002-01-16 04:35:33 51°14.011 2°55.502 7.1 162 5.1 101890 86
2002-01-16 04:35:38 51°14.02 2°55.495 8.1 166 5.1 101890 86
2002-01-16 04:35:43 51°14.028 2°55.488 8.2 161 5.1 101890 86
2002-01-16 04:35:47 51°14.035 2°55.483 7.9 151 5 101890 86
2002-01-16 04:35:53 51°14.044 2°55.476 6.8 169 5 101890 86
2002-01-16 04:35:57 51°14.051 2°55.471 6.8 162 5 101890 87
2002-01-16 04:36:03 51°14.06 2°55.464 6.7 165 5 101890 87
2002-01-16 04:36:07 51°14.066 2°55.46 6.7 163 5 101890 87
2002-01-16 04:36:13 51°14.074 2°55.454 6.7 164 5 101890 87
2002-01-16 04:36:18 51°14.082 2°55.448 5.5 170 5 101890 87
2002-01-16 04:36:23 51°14.091 2°55.442 6.6 151 5 101890 87
2002-01-16 04:36:27 51°14.098 2°55.437 7.1 158 5 101890 87
2002-01-16 04:36:33 51°14.11 2°55.428 7.3 160 5 101890 87
2002-01-16 04:36:37 51°14.119 2°55.421 7.1 156 5 101890 87
2002-01-16 04:36:42 51°14.131 2°55.412 8.3 157 5 101890 87
2002-01-16 04:36:47 51°14.143 2°55.402 7.4 157 4.9 101890 87
2002-01-16 04:36:52 51°14.156 2°55.392 8.8 154 4.9 101890 87
2002-01-16 04:36:57 51°14.169 2°55.38 8.5 151 4.9 101890 87
2002-01-16 04:37:02 51°14.181 2°55.368 8.9 153 4.9 101890 87
2002-01-16 04:37:07 51°14.194 2°55.354 9.9 151 4.8 101890 87
2002-01-16 04:37:12 51°14.207 2°55.34 10 150 4.8 101890 87
2002-01-16 04:37:17 51°14.22 2°55.325 9.4 148 4.8 101890 87
2002-01-16 04:37:23 51°14.234 2°55.305 10.6 146 4.8 101890 87
2002-01-16 04:37:27 51°14.244 2°55.29 11.4 149 4.8 101890 87
2002-01-16 04:37:33 51°14.257 2°55.268 11.4 144 4.8 101890 87
2002-01-16 04:37:37 51°14.266 2°55.253 10.1 142 4.7 101900 87
2002-01-16 04:37:43 51°14.278 2°55.229 10 145 4.7 101900 87
2002-01-16 04:37:47 51°14.286 2°55.213 11.4 144 4.7 101900 87
2002-01-16 04:37:53 51°14.298 2°55.187 11.1 140 4.7 101900 87
2002-01-16 04:37:58 51°14.307 2°55.166 10.1 140 4.7 101890 88
2002-01-16 04:38:03 51°14.316 2°55.143 10.5 141 4.7 101890 88
2002-01-16 04:38:07 51°14.323 2°55.125 9.8 142 4.7 101890 88
2002-01-16 04:38:13 51°14.333 2°55.098 10.7 140 4.7 101890 88
2002-01-16 04:38:17 51°14.34 2°55.08 9.9 141 4.6 101900 88
2002-01-16 04:38:22 51°14.348 2°55.057 10.3 140 4.6 101900 88
2002-01-16 04:38:27 51°14.356 2°55.034 10.4 140 4.6 101900 88
2002-01-16 04:38:32 51°14.364 2°55.01 10.6 140 4.6 101900 88
2002-01-16 04:38:37 51°14.373 2°54.987 9.9 141 4.6 101890 88
2002-01-16 04:38:43 51°14.383 2°54.958 10.6 142 4.6 101890 88
2002-01-16 04:38:47 51°14.391 2°54.94 11.8 142 4.6 101900 88
2002-01-16 04:38:51 51°14.399 2°54.922 10.6 142 4.6 101900 88
2002-01-16 04:38:57 51°14.411 2°54.894 11.9 141 4.6 101900 89
2002-01-16 04:39:03 51°14.424 2°54.867 12 145 4.6 101900 89
2002-01-16 04:39:07 51°14.433 2°54.85 11.4 144 4.6 101900 89
2002-01-16 04:39:13 51°14.448 2°54.825 11.9 145 4.6 101900 89
2002-01-16 04:39:17 51°14.457 2°54.809 11.4 144 4.6 101900 89
2002-01-16 04:39:23 51°14.472 2°54.785 10.5 143 4.6 101900 89
2002-01-16 04:39:27 51°14.482 2°54.769 11.5 143 4.6 101900 89
2002-01-16 04:39:33 51°14.497 2°54.744 12 145 4.6 101900 89
2002-01-16 04:39:38 51°14.509 2°54.724 11.1 143 4.6 101900 89
2002-01-16 04:39:43 51°14.521 2°54.704 11 144 4.6 101900 89
2002-01-16 04:39:47 51°14.531 2°54.687 11.7 143 4.6 101900 89
2002-01-16 04:39:53 51°14.546 2°54.663 11.7 144 4.6 101900 89
2002-01-16 04:39:58 51°14.558 2°54.642 11.2 142 4.6 101900 89
2002-01-16 04:40:03 51°14.57 2°54.622 11.1 144 4.6 101900 89
2002-01-16 04:40:07 51°14.58 2°54.606 11.9 144 4.6 101900 89
2002-01-16 04:40:13 51°14.595 2°54.582 12 144 4.6 101900 89
2002-01-16 04:40:17 51°14.605 2°54.567 11.3 145 4.6 101900 89
2002-01-16 04:40:23 51°14.622 2°54.546 12 147 4.6 101900 89
2002-01-16 04:40:28 51°14.635 2°54.528 11.1 146 4.6 101900 89
2002-01-16 04:40:33 51°14.649 2°54.512 11.8 143 4.6 101900 89
2002-01-16 04:40:37 51°14.66 2°54.498 12 141 4.6 101900 89
2002-01-16 04:40:42 51°14.673 2°54.48 10.9 141 4.6 101900 89
2002-01-16 04:40:47 51°14.684 2°54.46 11.1 141 4.6 101900 89
2002-01-16 04:40:52 51°14.696 2°54.441 11.8 142 4.6 101900 89
2002-01-16 04:40:57 51°14.708 2°54.42 10.9 140 4.6 101900 89
2002-01-16 04:41:02 51°14.719 2°54.4 11.1 142 4.6 101900 89
2002-01-16 04:41:07 51°14.73 2°54.38 10.9 140 4.6 101900 89
2002-01-16 04:41:13 51°14.744 2°54.356 11.7 142 4.6 101900 89
2002-01-16 04:41:17 51°14.753 2°54.34 11.9 141 4.6 101900 89
2002-01-16 04:41:23 51°14.767 2°54.317 11.4 145 4.6 101900 89
2002-01-16 04:41:27 51°14.778 2°54.302 11.3 145 4.6 101900 89
2002-01-16 04:41:33 51°14.794 2°54.283 11.6 148 4.6 101900 89
2002-01-16 04:41:37 51°14.805 2°54.27 11.7 143 4.6 101900 89
2002-01-16 04:41:43 51°14.822 2°54.253 10.9 147 4.6 101900 89
2002-01-16 04:41:47 51°14.834 2°54.241 12 147 4.6 101900 89
2002-01-16 04:41:53 51°14.852 2°54.224 11 147 4.6 101900 89
2002-01-16 04:41:57 51°14.864 2°54.212 11.2 147 4.6 101900 89
2002-01-16 04:42:03 51°14.881 2°54.195 10.9 146 4.6 101900 89
2002-01-16 04:42:07 51°14.893 2°54.185 10.6 145 4.6 101900 89
2002-01-16 04:42:14 51°14.915 2°54.166 10.9 147 4.6 101900 89
2002-01-16 04:42:18 51°14.927 2°54.155 10.4 144 4.6 101900 89
2002-01-16 04:42:23 51°14.942 2°54.141 11.5 147 4.6 101900 89
2002-01-16 04:42:27 51°14.954 2°54.13 11.8 145 4.6 101900 89
2002-01-16 04:42:33 51°14.972 2°54.114 11.8 146 4.6 101900 89
2002-01-16 04:42:38 51°14.987 2°54.101 11.7 148 4.6 101900 89
2002-01-16 04:42:43 51°15.002 2°54.087 10.8 145 4.6 101900 89
2002-01-16 04:42:47 51°15.015 2°54.076 10.8 147 4.7 101900 89
2002-01-16 04:42:53 51°15.033 2°54.06 10.8 148 4.7 101900 89
2002-01-16 04:42:57 51°15.045 2°54.049 10.6 147 4.6 101900 89
2002-01-16 04:43:03 51°15.064 2°54.033 11 148 4.6 101900 89
2002-01-16 04:43:07 51°15.076 2°54.022 12.3 148 4.6 101900 89
2002-01-16 04:43:13 51°15.094 2°54.005 11.5 149 4.6 101900 89
2002-01-16 04:43:17 51°15.106 2°53.994 11 145 4.6 101900 89
2002-01-16 04:43:23 51°15.125 2°53.977 12 147 4.6 101900 89
2002-01-16 04:43:28 51°15.139 2°53.963 12.4 145 4.6 101900 89
2002-01-16 04:43:33 51°15.155 2°53.949 11.4 151 4.6 101900 89
2002-01-16 04:43:37 51°15.167 2°53.937 11.8 146 4.6 101900 89
2002-01-16 04:43:43 51°15.185 2°53.92 11.4 149 4.6 101900 89
2002-01-16 04:43:47 51°15.197 2°53.909 11.2 146 4.7 101900 89
2002-01-16 04:43:52 51°15.212 2°53.896 10.9 150 4.7 101900 89
2002-01-16 04:43:57 51°15.227 2°53.882 11.9 148 4.6 101900 89
2002-01-16 04:44:03 51°15.246 2°53.866 11.3 151 4.6 101900 89
2002-01-16 04:44:07 51°15.258 2°53.854 12.4 145 4.6 101900 89
2002-01-16 04:44:12 51°15.273 2°53.841 11.3 150 4.6 101900 89
2002-01-16 04:44:18 51°15.292 2°53.824 12 145 4.6 101900 89
2002-01-16 04:44:23 51°15.307 2°53.81 12.5 150 4.6 101900 89
2002-01-16 04:44:27 51°15.32 2°53.798 11.4 147 4.7 101900 89
2002-01-16 04:44:33 51°15.339 2°53.781 11.5 149 4.7 101900 89
2002-01-16 04:44:38 51°15.355 2°53.767 11.4 146 4.7 101900 89
2002-01-16 04:44:43 51°15.37 2°53.752 12.6 149 4.7 101900 89
2002-01-16 04:44:47 51°15.383 2°53.741 11.3 147 4.6 101900 89
2002-01-16 04:44:53 51°15.401 2°53.722 12.8 147 4.6 101900 89
2002-01-16 04:44:57 51°15.414 2°53.711 11.5 146 4.6 101890 89
2002-01-16 04:45:03 51°15.433 2°53.693 11.3 147 4.6 101890 89
2002-01-16 04:45:08 51°15.449 2°53.68 11.3 147 4.7 101890 89
2002-01-16 04:45:13 51°15.464 2°53.664 11.5 148 4.7 101890 89
2002-01-16 04:45:17 51°15.477 2°53.654 11.3 146 4.7 101890 89
2002-01-16 04:45:22 51°15.493 2°53.639 11.7 149 4.7 101890 89
2002-01-16 04:45:27 51°15.509 2°53.626 11.1 146 4.7 101890 89
2002-01-16 04:45:32 51°15.525 2°53.612 12.3 150 4.7 101890 89
2002-01-16 04:45:37 51°15.542 2°53.6 12.7 148 4.7 101890 89
2002-01-16 04:45:43 51°15.561 2°53.583 12.8 148 4.7 101890 89
2002-01-16 04:45:48 51°15.578 2°53.571 11.3 147 4.7 101890 89
2002-01-16 04:45:53 51°15.595 2°53.556 12.6 150 4.7 101890 89
2002-01-16 04:45:57 51°15.609 2°53.547 12.1 146 4.7 101890 89
2002-01-16 04:46:03 51°15.629 2°53.531 11.6 148 4.7 101890 89
2002-01-16 04:46:06 51°15.639 2°53.524 11.5 147 4.7 101880 89
2002-01-16 04:46:13 51°15.663 2°53.505 11.4 152 4.7 101880 89
2002-01-16 04:46:18 51°15.681 2°53.494 12.3 147 4.7 101890 89
2002-01-16 04:46:23 51°15.698 2°53.479 11.5 149 4.7 101890 89
2002-01-16 04:46:27 51°15.711 2°53.469 13.2 146 4.7 101880 89
2002-01-16 04:46:33 51°15.732 2°53.452 11.8 149 4.7 101880 89
2002-01-16 04:46:37 51°15.745 2°53.442 13.2 147 4.7 101890 89
2002-01-16 04:46:43 51°15.766 2°53.425 12.2 152 4.7 101890 89
2002-01-16 04:46:47 51°15.78 2°53.416 11.6 145 4.7 101890 89
2002-01-16 04:46:53 51°15.8 2°53.399 12.7 150 4.7 101890 89
2002-01-16 04:46:58 51°15.817 2°53.387 12.6 146 4.7 101880 89
2002-01-16 04:47:03 51°15.834 2°53.373 12.9 150 4.7 101880 89
2002-01-16 04:47:07 51°15.848 2°53.363 13.4 145 4.7 101890 89
2002-01-16 04:47:13 51°15.869 2°53.346 12.2 151 4.7 101890 89
2002-01-16 04:47:17 51°15.882 2°53.336 12.6 146 4.7 101890 89
2002-01-16 04:47:23 51°15.903 2°53.32 11.7 153 4.7 101890 89
2002-01-16 04:47:28 51°15.92 2°53.308 13 148 4.7 101890 89
2002-01-16 04:47:33 51°15.937 2°53.293 13.1 152 4.7 101890 89
2002-01-16 04:47:37 51°15.951 2°53.283 12.3 145 4.7 101890 89
2002-01-16 04:47:42 51°15.968 2°53.27 13.4 150 4.7 101890 89
2002-01-16 04:47:47 51°15.985 2°53.257 13.2 145 4.7 101890 89
2002-01-16 04:47:53 51°16.006 2°53.24 13.4 150 4.7 101890 89
2002-01-16 04:47:58 51°16.023 2°53.228 13.6 148 4.7 101890 89
2002-01-16 04:48:03 51°16.04 2°53.214 13.6 151 4.7 101890 89
2002-01-16 04:48:07 51°16.053 2°53.203 12 146 4.7 101890 89
2002-01-16 04:48:13 51°16.074 2°53.187 11.9 151 4.7 101890 89
2002-01-16 04:48:18 51°16.091 2°53.174 11.8 146 4.7 101890 89
2002-01-16 04:48:23 51°16.108 2°53.16 12.7 152 4.7 101890 89
2002-01-16 04:48:28 51°16.125 2°53.148 12.4 148 4.7 101890 89
2002-01-16 04:48:33 51°16.142 2°53.134 12.3 152 4.7 101890 89
2002-01-16 04:48:38 51°16.16 2°53.122 11.5 147 4.7 101890 89
2002-01-16 04:48:42 51°16.174 2°53.111 12.9 153 4.7 101890 89
2002-01-16 04:48:47 51°16.19 2°53.097 13.5 146 4.7 101890 89
2002-01-16 04:48:53 51°16.211 2°53.082 12.5 154 4.7 101890 89
2002-01-16 04:48:57 51°16.225 2°53.071 13.1 149 4.8 101890 89
2002-01-16 04:49:03 51°16.246 2°53.055 13.3 153 4.8 101890 89
2002-01-16 04:49:07 51°16.259 2°53.045 13 146 4.7 101890 89
2002-01-16 04:49:13 51°16.28 2°53.029 13.3 153 4.7 101890 89
2002-01-16 04:49:18 51°16.297 2°53.016 12.1 149 4.7 101890 89
2002-01-16 04:49:23 51°16.315 2°53.003 12.3 154 4.7 101890 89
2002-01-16 04:49:27 51°16.328 2°52.992 12.2 148 4.7 101890 89
2002-01-16 04:49:33 51°16.349 2°52.977 12.9 153 4.7 101890 89
2002-01-16 04:49:38 51°16.366 2°52.964 13.4 145 4.8 101890 89
2002-01-16 04:49:43 51°16.383 2°52.951 12.9 152 4.8 101890 89
2002-01-16 04:49:47 51°16.397 2°52.94 13.3 148 4.8 101890 89
2002-01-16 04:49:53 51°16.418 2°52.925 13.8 154 4.8 101890 89
2002-01-16 04:49:57 51°16.432 2°52.914 13.2 147 4.8 101890 89
2002-01-16 04:50:03 51°16.453 2°52.9 12.7 155 4.8 101890 89
2002-01-16 04:50:07 51°16.467 2°52.889 11.7 146 4.8 101890 89
2002-01-16 04:50:13 51°16.488 2°52.874 12.6 154 4.8 101890 89
2002-01-16 04:50:17 51°16.502 2°52.864 13.4 148 4.8 101890 89
2002-01-16 04:50:23 51°16.523 2°52.85 13.3 153 4.8 101890 89
2002-01-16 04:50:28 51°16.541 2°52.837 13.2 148 4.8 101890 89
2002-01-16 04:50:33 51°16.558 2°52.825 13.8 154 4.8 101890 89
2002-01-16 04:50:38 51°16.575 2°52.812 13.3 149 4.8 101900 89
2002-01-16 04:50:43 51°16.593 2°52.8 12.9 157 4.8 101900 89
2002-01-16 04:50:47 51°16.607 2°52.79 13.5 151 4.7 101890 89
2002-01-16 04:50:53 51°16.629 2°52.776 12.9 153 4.7 101890 89
2002-01-16 04:50:58 51°16.646 2°52.763 13.8 148 4.8 101890 89
2002-01-16 04:51:03 51°16.663 2°52.752 13.3 154 4.8 101890 89
2002-01-16 04:51:07 51°16.677 2°52.741 12.6 153 4.8 101880 89
2002-01-16 04:51:13 51°16.698 2°52.728 14.1 154 4.8 101880 89
2002-01-16 04:51:17 51°16.712 2°52.717 13.5 151 4.8 101870 89
2002-01-16 04:51:23 51°16.734 2°52.705 13 155 4.8 101870 89
2002-01-16 04:51:28 51°16.751 2°52.692 12.4 149 4.8 101880 89
2002-01-16 04:51:33 51°16.769 2°52.682 13 156 4.8 101880 89
2002-01-16 04:51:37 51°16.783 2°52.671 12.6 149 4.8 101870 89
2002-01-16 04:51:42 51°16.801 2°52.662 12.6 153 4.8 101870 89
2002-01-16 04:51:47 51°16.818 2°52.649 12.2 150 4.8 101880 89
2002-01-16 04:51:53 51°16.84 2°52.637 13.1 154 4.8 101880 89
2002-01-16 04:51:58 51°16.857 2°52.623 13.8 153 4.8 101880 89
2002-01-16 04:52:03 51°16.875 2°52.614 12.9 155 4.8 101880 89
2002-01-16 04:52:07 51°16.889 2°52.603 12.2 152 4.8 101880 89
2002-01-16 04:52:13 51°16.91 2°52.59 13.8 154 4.8 101880 89
2002-01-16 04:52:17 51°16.924 2°52.578 13.6 152 4.8 101870 89
2002-01-16 04:52:23 51°16.945 2°52.565 13.5 151 4.8 101870 89
2002-01-16 04:52:27 51°16.959 2°52.554 13.1 155 4.8 101880 89
2002-01-16 04:52:33 51°16.98 2°52.54 13 151 4.8 101880 89
2002-01-16 04:52:38 51°16.998 2°52.527 14 155 4.8 101880 89
2002-01-16 04:52:43 51°17.015 2°52.515 12.1 149 4.8 101880 89
2002-01-16 04:52:47 51°17.029 2°52.506 13.6 157 4.8 101880 89
2002-01-16 04:52:53 51°17.05 2°52.492 13.8 149 4.8 101880 89
2002-01-16 04:52:57 51°17.064 2°52.483 13.7 157 4.8 101880 89
2002-01-16 04:53:03 51°17.085 2°52.468 12.7 150 4.8 101880 89
2002-01-16 04:53:07 51°17.1 2°52.459 13.9 157 4.8 101880 89
2002-01-16 04:53:13 51°17.121 2°52.445 12.4 149 4.8 101880 89
2002-01-16 04:53:17 51°17.135 2°52.436 13.6 156 4.8 101880 89
2002-01-16 04:53:23 51°17.156 2°52.422 13.6 149 4.8 101880 89
2002-01-16 04:53:27 51°17.171 2°52.413 13.2 157 4.8 101880 89
2002-01-16 04:53:33 51°17.191 2°52.398 12.4 149 4.8 101880 89
2002-01-16 04:53:38 51°17.21 2°52.387 12.3 157 4.8 101880 89
2002-01-16 04:53:43 51°17.227 2°52.375 13.4 150 4.8 101880 89
2002-01-16 04:53:47 51°17.242 2°52.367 13.9 156 4.8 101880 89
2002-01-16 04:53:53 51°17.263 2°52.352 12.4 149 4.8 101880 89
2002-01-16 04:53:58 51°17.281 2°52.341 12.7 157 4.8 101880 89
2002-01-16 04:54:03 51°17.299 2°52.329 12.2 148 4.8 101880 89
2002-01-16 04:54:07 51°17.313 2°52.322 12 156 4.8 101870 89
2002-01-16 04:54:13 51°17.335 2°52.308 13.1 148 4.8 101870 89
2002-01-16 04:54:18 51°17.353 2°52.298 13.4 154 4.9 101880 89
2002-01-16 04:54:23 51°17.371 2°52.287 11.8 152 4.9 101880 89
2002-01-16 04:54:27 51°17.385 2°52.279 13.7 154 4.8 101880 89
2002-01-16 04:54:32 51°17.403 2°52.266 12.9 148 4.8 101880 89
2002-01-16 04:54:37 51°17.421 2°52.258 13.1 157 4.8 101880 89
2002-01-16 04:54:43 51°17.442 2°52.244 12.2 150 4.8 101880 89
2002-01-16 04:54:47 51°17.457 2°52.237 13.5 154 4.9 101880 89
2002-01-16 04:54:51 51°17.471 2°52.227 11.5 154 4.9 101880 89
2002-01-16 04:54:58 51°17.496 2°52.215 13.5 154 4.9 101880 89
2002-01-16 04:55:03 51°17.514 2°52.204 12.3 150 4.9 101880 89
2002-01-16 04:55:07 51°17.529 2°52.197 13.2 155 4.9 101880 89
2002-01-16 04:55:13 51°17.551 2°52.184 12.8 150 4.9 101880 89
2002-01-16 04:55:17 51°17.566 2°52.178 12.1 156 4.8 101900 89
2002-01-16 04:55:23 51°17.587 2°52.166 11.4 152 4.8 101900 89
2002-01-16 04:55:28 51°17.606 2°52.159 12.7 158 4.9 101900 89
2002-01-16 04:55:33 51°17.624 2°52.149 12.1 156 4.9 101900 89
2002-01-16 04:55:38 51°17.643 2°52.143 12.2 158 4.9 101900 89
2002-01-16 04:55:42 51°17.658 2°52.137 11.3 154 4.9 101900 89
2002-01-16 04:55:47 51°17.677 2°52.133 12.7 158 4.9 101900 89
2002-01-16 04:55:53 51°17.699 2°52.123 11.1 155 4.9 101900 89
2002-01-16 04:55:58 51°17.718 2°52.119 12.7 156 4.9 101900 89
2002-01-16 04:56:03 51°17.737 2°52.111 11.7 154 4.9 101900 89
2002-01-16 04:56:07 51°17.752 2°52.109 10.9 157 4.9 101900 89
2002-01-16 04:56:13 51°17.775 2°52.1 11 155 4.9 101900 89
2002-01-16 04:56:17 51°17.791 2°52.098 11.7 158 4.9 101900 89
2002-01-16 04:56:23 51°17.813 2°52.09 12 153 4.9 101900 89
2002-01-16 04:56:27 51°17.829 2°52.088 10.9 158 4.9 101890 89
2002-01-16 04:56:33 51°17.852 2°52.08 13 154 4.9 101890 89
2002-01-16 04:56:38 51°17.871 2°52.077 11.6 157 4.9 101900 89
2002-01-16 04:56:43 51°17.89 2°52.071 11.5 157 4.9 101900 89
2002-01-16 04:56:48 51°17.91 2°52.069 12.5 156 4.9 101900 89
2002-01-16 04:56:53 51°17.929 2°52.063 11.9 156 4.9 101900 89
2002-01-16 04:56:57 51°17.944 2°52.061 11.3 159 4.9 101900 89
2002-01-16 04:57:03 51°17.968 2°52.055 11.3 156 4.9 101900 89
2002-01-16 04:57:07 51°17.983 2°52.054 10.7 158 4.9 101900 89
2002-01-16 04:57:13 51°18.006 2°52.05 11 158 4.9 101900 89
2002-01-16 04:57:17 51°18.022 2°52.049 12.2 156 4.9 101890 89
2002-01-16 04:57:23 51°18.046 2°52.046 11 161 4.9 101890 89
2002-01-16 04:57:27 51°18.061 2°52.044 11.3 159 4.9 101900 89
2002-01-16 04:57:33 51°18.085 2°52.043 12 163 4.9 101900 89
2002-01-16 04:57:38 51°18.104 2°52.043 11.4 158 4.9 101900 89
2002-01-16 04:57:43 51°18.124 2°52.044 11.2 162 4.9 101900 89
2002-01-16 04:57:48 51°18.143 2°52.045 11.8 165 4.9 101890 89
2002-01-16 04:57:53 51°18.163 2°52.05 11.6 167 4.9 101890 89
2002-01-16 04:57:58 51°18.182 2°52.056 10.9 169 4.9 101900 89
2002-01-16 04:58:03 51°18.2 2°52.066 10.2 172 4.9 101900 89
2002-01-16 04:58:07 51°18.215 2°52.075 9.5 173 4.9 101900 89
2002-01-16 04:58:13 51°18.235 2°52.092 9.9 174 4.9 101900 89
2002-01-16 04:58:18 51°18.252 2°52.108 8.6 175 4.9 101900 89
2002-01-16 04:58:23 51°18.267 2°52.126 9 175 4.9 101900 89
2002-01-16 04:58:28 51°18.282 2°52.146 8.2 174 4.9 101900 89
2002-01-16 04:58:33 51°18.296 2°52.166 8.2 178 4.9 101900 89
2002-01-16 04:58:37 51°18.307 2°52.184 7.9 174 4.9 101900 89
2002-01-16 04:58:43 51°18.323 2°52.21 7.7 180 4.9 101900 89
2002-01-16 04:58:47 51°18.333 2°52.229 7.8 177 4.9 101910 89
2002-01-16 04:58:53 51°18.347 2°52.259 6.9 176 4.9 101910 89
2002-01-16 04:58:58 51°18.355 2°52.286 6.3 181 4.9 101910 89
2002-01-16 04:59:03 51°18.363 2°52.313 6.5 176 4.9 101910 89
2002-01-16 04:59:07 51°18.368 2°52.336 6.6 188 4.9 101910 89
2002-01-16 04:59:13 51°18.376 2°52.37 6.1 172 4.9 101910 89
2002-01-16 04:59:16 51°18.379 2°52.388 6.6 180 4.9 101910 89
2002-01-16 04:59:23 51°18.388 2°52.428 5.6 176 4.9 101910 89
2002-01-16 04:59:27 51°18.392 2°52.451 6.6 180 4.9 101910 89
2002-01-16 04:59:33 51°18.4 2°52.485 6 179 4.9 101910 89
2002-01-16 04:59:37 51°18.404 2°52.509 6.3 177 4.9 101910 89
2002-01-16 04:59:43 51°18.412 2°52.543 6.2 176 4.9 101910 89
2002-01-16 04:59:48 51°18.418 2°52.572 6.1 173 4.9 101910 89
2002-01-16 04:59:52 51°18.423 2°52.595 6.6 177 4.9 101910 89
2002-01-16 04:59:57 51°18.428 2°52.624 5.7 170 4.9 101910 89
2002-01-16 05:00:03 51°18.436 2°52.659 6.5 176 4.9 101910 89
2002-01-16 05:00:08 51°18.441 2°52.688 5.9 174 4.9 101910 89
2002-01-16 05:00:13 51°18.447 2°52.717 6.3 179 4.9 101910 89
2002-01-16 05:00:18 51°18.452 2°52.746 5.6 168 4.9 101910 89
2002-01-16 05:00:23 51°18.458 2°52.775 6.5 175 4.9 101910 89
2002-01-16 05:00:28 51°18.465 2°52.804 5.6 166 4.9 101910 89
2002-01-16 05:00:33 51°18.47 2°52.833 6.6 180 4.9 101910 89
2002-01-16 05:00:38 51°18.476 2°52.861 5.2 166 4.9 101910 89
2002-01-16 05:00:43 51°18.482 2°52.89 6.9 179 4.9 101910 89
2002-01-16 05:00:47 51°18.488 2°52.913 5.6 169 4.9 101910 89
2002-01-16 05:00:53 51°18.495 2°52.947 7 180 4.9 101910 89
2002-01-16 05:00:58 51°18.502 2°52.976 6.2 179 4.9 101910 89
2002-01-16 05:01:03 51°18.508 2°53.004 6.4 172 4.9 101910 89
2002-01-16 05:01:08 51°18.516 2°53.032 6.5 178 4.9 101910 89
2002-01-16 05:01:13 51°18.521 2°53.061 6.4 180 4.9 101910 89
2002-01-16 05:01:18 51°18.528 2°53.089 5.5 167 4.8 101920 89
2002-01-16 05:01:23 51°18.535 2°53.118 6.1 168 4.8 101920 89
2002-01-16 05:01:28 51°18.541 2°53.147 6.6 179 4.8 101910 89
2002-01-16 05:01:33 51°18.548 2°53.175 6.1 174 4.8 101910 89
2002-01-16 05:01:38 51°18.555 2°53.204 6.3 180 4.8 101910 89
2002-01-16 05:01:43 51°18.56 2°53.233 6.7 186 4.8 101910 89
2002-01-16 05:01:48 51°18.569 2°53.26 6.3 174 4.8 101910 89
2002-01-16 05:01:53 51°18.575 2°53.289 7 179 4.8 101910 89
2002-01-16 05:01:58 51°18.582 2°53.317 6.8 178 4.8 101920 89
2002-01-16 05:02:03 51°18.589 2°53.346 5.9 172 4.8 101920 89
2002-01-16 05:02:08 51°18.595 2°53.374 6.7 181 4.8 101910 89
2002-01-16 05:02:13 51°18.602 2°53.403 6.3 181 4.8 101910 89
2002-01-16 05:02:18 51°18.607 2°53.432 5.8 173 4.8 101920 89
2002-01-16 05:02:23 51°18.614 2°53.459 6.4 175 4.8 101920 89
2002-01-16 05:02:28 51°18.619 2°53.489 6.2 184 4.8 101910 89
2002-01-16 05:02:33 51°18.627 2°53.517 5.9 172 4.8 101910 89
2002-01-16 05:02:38 51°18.632 2°53.546 5.9 178 4.8 101920 89
2002-01-16 05:02:43 51°18.639 2°53.574 5.8 164 4.8 101920 89
2002-01-16 05:02:48 51°18.644 2°53.603 6.9 184 4.8 101910 89
2002-01-16 05:02:53 51°18.652 2°53.631 5.9 166 4.8 101910 89
2002-01-16 05:02:58 51°18.657 2°53.661 6.4 183 4.8 101910 89
2002-01-16 05:03:03 51°18.664 2°53.689 5.8 174 4.8 101910 89
2002-01-16 05:03:08 51°18.67 2°53.718 7 182 4.9 101920 89
2002-01-16 05:03:13 51°18.677 2°53.747 6.2 176 4.9 101920 89
2002-01-16 05:03:18 51°18.684 2°53.775 6.3 177 4.8 101920 89
2002-01-16 05:03:23 51°18.69 2°53.804 5.6 171 4.8 101920 89
2002-01-16 05:03:28 51°18.697 2°53.832 7.3 182 4.8 101920 89
2002-01-16 05:03:33 51°18.702 2°53.861 6.3 180 4.8 101920 89
2002-01-16 05:03:38 51°18.709 2°53.889 6.4 176 4.8 101910 89
2002-01-16 05:03:43 51°18.715 2°53.918 6.5 185 4.8 101910 89
2002-01-16 05:03:48 51°18.722 2°53.946 5.6 175 4.8 101910 89
2002-01-16 05:03:53 51°18.727 2°53.975 6.8 183 4.8 101910 89
2002-01-16 05:03:58 51°18.735 2°54.003 5.8 175 4.8 101910 89
2002-01-16 05:04:03 51°18.741 2°54.032 6 176 4.8 101910 89
2002-01-16 05:04:08 51°18.747 2°54.06 6.8 186 4.8 101920 89
2002-01-16 05:04:13 51°18.753 2°54.089 5.8 175 4.8 101920 89
2002-01-16 05:04:18 51°18.759 2°54.117 6.6 186 4.8 101910 89
2002-01-16 05:04:23 51°18.765 2°54.146 5.6 174 4.8 101910 89
2002-01-16 05:04:28 51°18.772 2°54.174 6.7 182 4.8 101920 89
2002-01-16 05:04:33 51°18.777 2°54.203 5.8 175 4.8 101920 89
2002-01-16 05:04:38 51°18.784 2°54.231 6.6 184 4.8 101920 89
2002-01-16 05:04:43 51°18.789 2°54.26 6.2 178 4.8 101920 89
2002-01-16 05:04:48 51°18.796 2°54.288 6.7 181 4.8 101910 89
2002-01-16 05:04:53 51°18.803 2°54.317 6.3 178 4.8 101910 89
2002-01-16 05:04:58 51°18.809 2°54.346 6.3 180 4.8 101920 89
2002-01-16 05:05:03 51°18.815 2°54.375 5.9 176 4.8 101920 89
2002-01-16 05:05:08 51°18.822 2°54.403 6.5 181 4.8 101910 89
2002-01-16 05:05:13 51°18.828 2°54.432 6.1 177 4.8 101910 89
2002-01-16 05:05:18 51°18.834 2°54.461 6 179 4.8 101910 89
2002-01-16 05:05:23 51°18.842 2°54.489 6.4 175 4.8 101910 89
2002-01-16 05:05:28 51°18.849 2°54.517 6.9 183 4.8 101920 89
2002-01-16 05:05:33 51°18.855 2°54.546 6.2 179 4.8 101920 89
2002-01-16 05:05:38 51°18.863 2°54.574 7.5 183 4.8 101920 89
2002-01-16 05:05:43 51°18.869 2°54.604 6.4 180 4.8 101920 89
2002-01-16 05:05:48 51°18.877 2°54.631 6.8 181 4.8 101910 89
2002-01-16 05:05:53 51°18.882 2°54.661 6.5 184 4.8 101910 89
2002-01-16 05:05:58 51°18.889 2°54.689 6 173 4.8 101910 89
2002-01-16 05:06:03 51°18.895 2°54.717 6.3 181 4.8 101910 89
2002-01-16 05:06:08 51°18.9 2°54.746 5.6 177 4.8 101910 89
2002-01-16 05:06:13 51°18.907 2°54.774 5.6 176 4.8 101910 89
2002-01-16 05:06:18 51°18.912 2°54.804 5.8 178 4.8 101910 89
2002-01-16 05:06:23 51°18.92 2°54.832 6.1 176 4.8 101910 89
2002-01-16 05:06:28 51°18.925 2°54.861 6.8 182 4.8 101910 89
2002-01-16 05:06:33 51°18.933 2°54.889 5.2 171 4.8 101910 89
2002-01-16 05:06:38 51°18.937 2°54.918 6.9 188 4.8 101910 89
2002-01-16 05:06:43 51°18.944 2°54.946 5.2 172 4.8 101910 89
2002-01-16 05:06:48 51°18.95 2°54.975 6.7 185 4.8 101920 89
2002-01-16 05:06:53 51°18.956 2°55.004 5.4 174 4.8 101920 89
2002-01-16 05:06:58 51°18.963 2°55.033 6.7 185 4.8 101920 89
2002-01-16 05:07:03 51°18.968 2°55.062 6 182 4.8 101920 89
2002-01-16 05:07:08 51°18.975 2°55.091 5.9 179 4.8 101920 89
2002-01-16 05:07:13 51°18.981 2°55.119 5.9 169 4.8 101920 89
2002-01-16 05:07:17 51°18.986 2°55.142 6.8 185 4.8 101920 89
2002-01-16 05:07:23 51°18.995 2°55.175 5.2 176 4.8 101920 89
2002-01-16 05:07:28 51°19 2°55.204 6.2 182 4.8 101920 89
2002-01-16 05:07:33 51°19.008 2°55.232 5.9 170 4.8 101920 89
2002-01-16 05:07:38 51°19.014 2°55.261 7.6 186 4.8 101910 89
2002-01-16 05:07:43 51°19.02 2°55.29 6.3 180 4.8 101910 89
2002-01-16 05:07:48 51°19.028 2°55.317 6 179 4.8 101910 89
2002-01-16 05:07:53 51°19.034 2°55.346 5.7 177 4.8 101910 89
2002-01-16 05:07:58 51°19.04 2°55.374 6.7 180 4.8 101920 89
2002-01-16 05:08:03 51°19.047 2°55.402 5.8 180 4.8 101920 89
2002-01-16 05:08:08 51°19.053 2°55.431 6 181 4.8 101910 89
2002-01-16 05:08:13 51°19.059 2°55.46 6.8 182 4.8 101910 89
2002-01-16 05:08:18 51°19.066 2°55.488 5.4 178 4.8 101920 89
2002-01-16 05:08:23 51°19.072 2°55.517 5.9 179 4.8 101920 89
2002-01-16 05:08:28 51°19.078 2°55.546 5.9 178 4.7 101920 89
2002-01-16 05:08:33 51°19.083 2°55.575 6.6 184 4.7 101920 89
2002-01-16 05:08:38 51°19.089 2°55.603 5.2 174 4.8 101910 89
2002-01-16 05:08:43 51°19.095 2°55.631 5.7 182 4.8 101910 89
2002-01-16 05:08:48 51°19.101 2°55.66 5.3 173 4.8 101910 89
2002-01-16 05:08:53 51°19.107 2°55.688 6.5 181 4.8 101910 89
2002-01-16 05:08:58 51°19.113 2°55.717 5.7 180 4.7 101920 89
2002-01-16 05:09:03 51°19.119 2°55.745 6.3 181 4.7 101920 89
2002-01-16 05:09:08 51°19.125 2°55.774 5.8 176 4.7 101920 89
2002-01-16 05:09:13 51°19.132 2°55.802 5.4 173 4.7 101920 89
2002-01-16 05:09:18 51°19.137 2°55.831 6.1 183 4.8 101910 89
2002-01-16 05:09:23 51°19.143 2°55.859 5.3 173 4.8 101910 89
2002-01-16 05:09:28 51°19.149 2°55.887 7.1 184 4.7 101910 89
2002-01-16 05:09:33 51°19.156 2°55.916 5.3 171 4.7 101910 89
2002-01-16 05:09:38 51°19.161 2°55.944 6.3 182 4.7 101920 89
2002-01-16 05:09:43 51°19.168 2°55.973 5.7 174 4.7 101920 89
2002-01-16 05:09:48 51°19.174 2°56.001 6.6 186 4.7 101920 89
2002-01-16 05:09:53 51°19.18 2°56.029 5.4 180 4.7 101920 89
2002-01-16 05:09:58 51°19.187 2°56.057 6.8 179 4.7 101920 89
2002-01-16 05:10:03 51°19.193 2°56.086 6 176 4.7 101920 89
2002-01-16 05:10:08 51°19.199 2°56.114 6.2 183 4.7 101920 89
2002-01-16 05:10:13 51°19.205 2°56.143 5.6 172 4.7 101920 89
2002-01-16 05:10:18 51°19.212 2°56.171 6.5 181 4.7 101920 89
2002-01-16 05:10:23 51°19.217 2°56.199 5.8 177 4.7 101920 89
2002-01-16 05:10:28 51°19.225 2°56.227 6.7 182 4.7 101920 89
2002-01-16 05:10:33 51°19.229 2°56.257 6.2 180 4.7 101920 89
2002-01-16 05:10:38 51°19.237 2°56.284 6.2 181 4.7 101920 89
2002-01-16 05:10:43 51°19.241 2°56.313 6.4 182 4.7 101920 89
2002-01-16 05:10:48 51°19.249 2°56.34 6.6 183 4.7 101920 89
2002-01-16 05:10:53 51°19.255 2°56.369 6.3 178 4.7 101920 89
2002-01-16 05:10:58 51°19.263 2°56.396 6.8 183 4.7 101920 89
2002-01-16 05:11:03 51°19.268 2°56.425 6.1 185 4.7 101920 89
2002-01-16 05:11:08 51°19.276 2°56.453 6.5 177 4.7 101920 89
2002-01-16 05:11:13 51°19.281 2°56.481 6.2 181 4.7 101920 89
2002-01-16 05:11:18 51°19.289 2°56.509 6.1 179 4.7 101920 89
2002-01-16 05:11:23 51°19.294 2°56.537 5.9 177 4.7 101920 89
2002-01-16 05:11:28 51°19.301 2°56.565 5.8 175 4.7 101920 89
2002-01-16 05:11:33 51°19.308 2°56.593 6.7 182 4.7 101920 89
2002-01-16 05:11:38 51°19.315 2°56.621 5.8 176 4.7 101920 89
2002-01-16 05:11:43 51°19.323 2°56.648 6.4 180 4.7 101920 89
2002-01-16 05:11:48 51°19.329 2°56.676 6.1 179 4.7 101920 89
2002-01-16 05:11:53 51°19.338 2°56.703 6.3 179 4.7 101920 89
2002-01-16 05:11:58 51°19.345 2°56.73 6.4 179 4.7 101910 89
2002-01-16 05:12:03 51°19.353 2°56.757 6.5 180 4.7 101910 89
2002-01-16 05:12:08 51°19.361 2°56.784 7 179 4.7 101910 89
2002-01-16 05:12:13 51°19.368 2°56.812 7.2 185 4.7 101910 89
2002-01-16 05:12:18 51°19.377 2°56.839 6.8 180 4.7 101920 89
2002-01-16 05:12:23 51°19.384 2°56.867 6.7 179 4.7 101920 89
2002-01-16 05:12:28 51°19.393 2°56.893 6.7 180 4.7 101910 89
2002-01-16 05:12:33 51°19.4 2°56.921 7.1 181 4.7 101910 89
2002-01-16 05:12:38 51°19.409 2°56.947 6.9 182 4.7 101910 89
2002-01-16 05:12:43 51°19.416 2°56.975 6.8 183 4.7 101910 89
2002-01-16 05:12:48 51°19.425 2°57.002 6.6 179 4.7 101920 89
2002-01-16 05:12:53 51°19.432 2°57.029 6.9 184 4.7 101920 89
2002-01-16 05:12:58 51°19.44 2°57.056 5.7 171 4.7 101920 89
2002-01-16 05:13:03 51°19.448 2°57.084 7 185 4.7 101920 89
2002-01-16 05:13:08 51°19.455 2°57.111 5.5 173 4.7 101920 89
2002-01-16 05:13:13 51°19.464 2°57.138 6.8 180 4.7 101920 89
2002-01-16 05:13:17 51°19.47 2°57.159 6.1 174 4.7 101920 89
2002-01-16 05:13:23 51°19.48 2°57.192 7.1 185 4.7 101920 89
2002-01-16 05:13:28 51°19.487 2°57.219 6.1 173 4.7 101920 89
2002-01-16 05:13:33 51°19.495 2°57.246 6.7 185 4.7 101920 89
2002-01-16 05:13:38 51°19.503 2°57.273 5.7 172 4.7 101920 89
2002-01-16 05:13:43 51°19.511 2°57.3 6.7 185 4.7 101920 89
2002-01-16 05:13:48 51°19.518 2°57.328 5.4 176 4.7 101920 89
2002-01-16 05:13:53 51°19.527 2°57.354 6.9 183 4.7 101920 89
2002-01-16 05:13:58 51°19.535 2°57.381 5.9 179 4.7 101920 89
2002-01-16 05:14:03 51°19.542 2°57.409 6.7 183 4.7 101920 89
2002-01-16 05:14:08 51°19.55 2°57.436 6.7 180 4.7 101920 89
2002-01-16 05:14:13 51°19.558 2°57.463 6.5 181 4.7 101920 89
2002-01-16 05:14:18 51°19.566 2°57.49 3.3 181 4.7 101920 89
2002-01-16 05:14:23 51°19.572 2°57.518 6.4 183 4.7 101920 89
2002-01-16 05:14:28 51°19.58 2°57.545 6.5 176 4.7 101910 89
2002-01-16 05:14:33 51°19.586 2°57.573 6.7 187 4.7 101910 89
2002-01-16 05:14:37 51°19.594 2°57.594 6.1 176 4.7 101920 89
2002-01-16 05:14:43 51°19.601 2°57.629 7 189 4.7 101920 89
2002-01-16 05:14:48 51°19.61 2°57.655 5.6 176 4.7 101920 89
2002-01-16 05:14:53 51°19.616 2°57.683 7.3 187 4.7 101920 89
2002-01-16 05:14:58 51°19.625 2°57.709 5.7 176 4.7 101920 89
2002-01-16 05:15:03 51°19.632 2°57.736 7.1 183 4.7 101920 89
2002-01-16 05:15:07 51°19.639 2°57.758 6.1 176 4.7 101920 89
2002-01-16 05:15:13 51°19.648 2°57.791 5.8 178 4.7 101920 89
2002-01-16 05:15:18 51°19.657 2°57.818 6.8 185 4.7 101910 89
2002-01-16 05:15:23 51°19.664 2°57.845 6 175 4.7 101910 89
2002-01-16 05:15:28 51°19.673 2°57.872 7.1 187 4.7 101910 89
2002-01-16 05:15:33 51°19.68 2°57.9 5.7 176 4.7 101910 89
2002-01-16 05:15:38 51°19.689 2°57.926 6.9 184 4.7 101920 89
2002-01-16 05:15:43 51°19.696 2°57.954 6.2 177 4.7 101920 89
2002-01-16 05:15:48 51°19.705 2°57.98 6.5 184 4.7 101920 89
2002-01-16 05:15:53 51°19.712 2°58.008 5.8 180 4.7 101920 89
2002-01-16 05:15:58 51°19.72 2°58.035 6.6 186 4.7 101920 89
2002-01-16 05:16:03 51°19.726 2°58.064 5.4 179 4.7 101920 89
2002-01-16 05:16:08 51°19.733 2°58.092 6 183 4.7 101920 89
2002-01-16 05:16:13 51°19.739 2°58.12 4.9 177 4.7 101920 89
2002-01-16 05:16:18 51°19.745 2°58.149 6.2 187 4.7 101920 89
2002-01-16 05:16:23 51°19.749 2°58.178 5.8 181 4.7 101920 89
2002-01-16 05:16:28 51°19.756 2°58.206 5.8 186 4.7 101920 89
2002-01-16 05:16:33 51°19.76 2°58.236 5.9 187 4.7 101920 89
2002-01-16 05:16:38 51°19.767 2°58.263 5.6 176 4.7 101920 89
2002-01-16 05:16:43 51°19.772 2°58.292 6.5 187 4.7 101920 89
2002-01-16 05:16:48 51°19.778 2°58.32 5.2 169 4.7 101920 89
2002-01-16 05:16:53 51°19.784 2°58.349 6.5 186 4.7 101920 89
2002-01-16 05:16:58 51°19.79 2°58.377 5.3 178 4.7 101920 89
2002-01-16 05:17:03 51°19.797 2°58.405 6.2 181 4.7 101920 89
2002-01-16 05:17:08 51°19.804 2°58.433 5.8 177 4.7 101920 89
2002-01-16 05:17:13 51°19.812 2°58.46 6.4 178 4.7 101920 89
2002-01-16 05:17:18 51°19.817 2°58.489 5.7 182 4.7 101920 89
2002-01-16 05:17:23 51°19.825 2°58.516 5.8 178 4.7 101920 89
2002-01-16 05:17:28 51°19.831 2°58.544 5.8 182 4.7 101920 89
2002-01-16 05:17:33 51°19.839 2°58.571 5.8 174 4.7 101920 89
2002-01-16 05:17:38 51°19.845 2°58.599 6.3 184 4.7 101920 89
2002-01-16 05:17:43 51°19.854 2°58.626 5.5 173 4.7 101920 89
2002-01-16 05:17:48 51°19.86 2°58.654 6.4 182 4.7 101920 89
2002-01-16 05:17:53 51°19.869 2°58.681 5.3 174 4.7 101920 89
2002-01-16 05:17:58 51°19.875 2°58.709 6.6 184 4.7 101920 89
2002-01-16 05:18:03 51°19.883 2°58.737 5.4 173 4.7 101920 89
2002-01-16 05:18:08 51°19.89 2°58.765 6.4 185 4.7 101920 89
2002-01-16 05:18:13 51°19.896 2°58.793 5.4 180 4.7 101920 89
2002-01-16 05:18:18 51°19.904 2°58.821 5.9 181 4.7 101920 89
2002-01-16 05:18:23 51°19.911 2°58.849 6.7 179 4.7 101920 89
2002-01-16 05:18:28 51°19.918 2°58.877 6 181 4.7 101930 89
2002-01-16 05:18:33 51°19.925 2°58.904 5.9 177 4.7 101930 89
2002-01-16 05:18:38 51°19.932 2°58.932 5.8 181 4.7 101920 89
2002-01-16 05:18:43 51°19.939 2°58.961 5.9 179 4.7 101920 89
2002-01-16 05:18:48 51°19.946 2°58.989 5.9 181 4.6 101920 89
2002-01-16 05:18:53 51°19.952 2°59.017 5.4 179 4.6 101920 89
2002-01-16 05:18:58 51°19.96 2°59.044 6.4 187 4.7 101920 89
2002-01-16 05:19:03 51°19.966 2°59.073 6.3 181 4.7 101920 89
2002-01-16 05:19:08 51°19.974 2°59.1 5.7 181 4.7 101920 89
2002-01-16 05:19:13 51°19.98 2°59.129 6 181 4.7 101920 89
2002-01-16 05:19:18 51°19.988 2°59.156 6.1 183 4.6 101930 89
2002-01-16 05:19:23 51°19.995 2°59.185 6.3 184 4.6 101930 89
2002-01-16 05:19:28 51°20.003 2°59.212 5.4 176 4.7 101920 89
2002-01-16 05:19:33 51°20.009 2°59.24 6.7 183 4.7 101920 89
2002-01-16 05:19:38 51°20.016 2°59.268 5.4 176 4.6 101920 89
2002-01-16 05:19:43 51°20.024 2°59.296 5.9 180 4.6 101920 89
2002-01-16 05:19:48 51°20.03 2°59.324 6.2 180 4.7 101920 89
2002-01-16 05:19:53 51°20.038 2°59.352 5.3 177 4.7 101920 89
2002-01-16 05:19:58 51°20.045 2°59.38 5.6 180 4.6 101920 89
2002-01-16 05:20:03 51°20.052 2°59.408 5.9 182 4.6 101920 89
2002-01-16 05:20:08 51°20.059 2°59.436 5.5 178 4.6 101930 89
2002-01-16 05:20:13 51°20.066 2°59.463 5.5 173 4.6 101930 89
2002-01-16 05:20:18 51°20.072 2°59.492 6 183 4.6 101920 89
2002-01-16 05:20:23 51°20.081 2°59.519 4.9 173 4.6 101920 89
2002-01-16 05:20:28 51°20.086 2°59.548 6 188 4.7 101930 89
2002-01-16 05:20:33 51°20.095 2°59.575 4.8 174 4.7 101930 89
2002-01-16 05:20:38 51°20.101 2°59.603 6.1 190 4.6 101920 89
2002-01-16 05:20:43 51°20.108 2°59.631 5.3 181 4.6 101920 89
2002-01-16 05:20:48 51°20.116 2°59.658 6.4 185 4.6 101930 89
2002-01-16 05:20:53 51°20.122 2°59.686 5.5 179 4.6 101930 89
2002-01-16 05:20:58 51°20.13 2°59.714 6.2 188 4.7 101930 89
2002-01-16 05:21:03 51°20.136 2°59.742 5.4 181 4.7 101930 89
2002-01-16 05:21:08 51°20.145 2°59.769 7 187 4.6 101930 89
2002-01-16 05:21:13 51°20.151 2°59.797 6.3 187 4.6 101930 89
2002-01-16 05:21:18 51°20.159 2°59.825 6 182 4.6 101930 89
2002-01-16 05:21:23 51°20.166 2°59.853 5.9 180 4.6 101930 89
2002-01-16 05:21:28 51°20.172 2°59.881 6 187 4.6 101930 89
2002-01-16 05:21:33 51°20.179 2°59.909 5.2 178 4.6 101930 89
2002-01-16 05:21:38 51°20.186 2°59.937 5.8 184 4.6 101920 89
2002-01-16 05:21:43 51°20.193 2°59.965 5 175 4.6 101920 89
2002-01-16 05:21:48 51°20.199 2°59.993 6.3 186 4.6 101930 89
2002-01-16 05:21:53 51°20.207 3°0.021 4.8 172 4.6 101930 89
2002-01-16 05:21:58 51°20.213 3°0.049 6.7 188 4.6 101930 89
2002-01-16 05:22:03 51°20.219 3°0.077 5.4 181 4.6 101930 89
2002-01-16 05:22:08 51°20.227 3°0.105 6.1 185 4.6 101920 89
2002-01-16 05:22:13 51°20.233 3°0.134 6.2 185 4.6 101920 89
2002-01-16 05:22:18 51°20.241 3°0.161 6 183 4.6 101930 89
2002-01-16 05:22:23 51°20.247 3°0.19 5.6 181 4.6 101930 89
2002-01-16 05:22:28 51°20.254 3°0.217 5.9 183 4.6 101930 89
2002-01-16 05:22:33 51°20.261 3°0.245 5.7 181 4.6 101930 89
2002-01-16 05:22:38 51°20.269 3°0.273 5.9 184 4.6 101920 89
2002-01-16 05:22:43 51°20.276 3°0.301 5.9 184 4.6 101920 89
2002-01-16 05:22:48 51°20.283 3°0.329 5.3 181 4.6 101930 89
2002-01-16 05:22:53 51°20.29 3°0.357 5.4 181 4.6 101930 89
2002-01-16 05:22:58 51°20.297 3°0.384 5.3 182 4.6 101930 89
2002-01-16 05:23:03 51°20.303 3°0.412 6.1 189 4.6 101930 89
2002-01-16 05:23:08 51°20.31 3°0.44 5.4 180 4.6 101930 90
2002-01-16 05:23:13 51°20.317 3°0.468 6.3 189 4.6 101930 90
2002-01-16 05:23:17 51°20.322 3°0.49 4.8 177 4.6 101930 90
2002-01-16 05:23:23 51°20.331 3°0.523 5.9 184 4.6 101930 90
2002-01-16 05:23:28 51°20.337 3°0.552 5.3 181 4.6 101930 90
2002-01-16 05:23:33 51°20.345 3°0.579 6 185 4.6 101930 90
2002-01-16 05:23:37 51°20.35 3°0.601 5.6 181 4.6 101930 90
2002-01-16 05:23:43 51°20.359 3°0.634 6 181 4.6 101930 90
2002-01-16 05:23:48 51°20.366 3°0.662 5.4 178 4.6 101930 90
2002-01-16 05:23:53 51°20.373 3°0.69 6.2 185 4.6 101930 90
2002-01-16 05:23:58 51°20.381 3°0.717 5.7 183 4.6 101930 90
2002-01-16 05:24:03 51°20.387 3°0.745 6.1 184 4.6 101930 90
2002-01-16 05:24:08 51°20.395 3°0.772 5.9 181 4.6 101930 90
2002-01-16 05:24:13 51°20.401 3°0.801 5.5 179 4.6 101930 90
2002-01-16 05:24:18 51°20.409 3°0.828 5.8 186 4.6 101930 90
2002-01-16 05:24:23 51°20.415 3°0.856 5.4 178 4.6 101930 90
2002-01-16 05:24:28 51°20.424 3°0.883 5.8 180 4.6 101930 90
2002-01-16 05:24:33 51°20.429 3°0.912 6.4 180 4.6 101930 90
2002-01-16 05:24:38 51°20.438 3°0.939 6.2 183 4.6 101930 90
2002-01-16 05:24:43 51°20.445 3°0.968 6.2 184 4.6 101930 90
2002-01-16 05:24:48 51°20.453 3°0.995 5.8 181 4.6 101930 90
2002-01-16 05:24:53 51°20.46 3°1.024 6.4 184 4.6 101930 90
2002-01-16 05:24:58 51°20.469 3°1.051 6.3 184 4.6 101930 90
2002-01-16 05:25:03 51°20.475 3°1.08 6 188 4.6 101930 90
2002-01-16 05:25:08 51°20.484 3°1.108 5.9 178 4.6 101930 90
2002-01-16 05:25:13 51°20.491 3°1.137 6.6 186 4.6 101930 90
2002-01-16 05:25:18 51°20.499 3°1.165 5.7 176 4.6 101930 90
2002-01-16 05:25:23 51°20.506 3°1.193 5.8 183 4.6 101930 90
2002-01-16 05:25:28 51°20.514 3°1.221 5.6 184 4.6 101930 90
2002-01-16 05:25:33 51°20.52 3°1.251 6 181 4.6 101930 90
2002-01-16 05:25:38 51°20.528 3°1.278 6 180 4.6 101920 90
2002-01-16 05:25:43 51°20.534 3°1.307 6.1 189 4.6 101920 90
2002-01-16 05:25:47 51°20.541 3°1.328 5.7 178 4.6 101930 90
2002-01-16 05:25:53 51°20.549 3°1.363 5.9 182 4.6 101930 90
2002-01-16 05:25:58 51°20.556 3°1.39 5.1 179 4.6 101930 90
2002-01-16 05:26:03 51°20.563 3°1.419 6.3 186 4.6 101930 90
2002-01-16 05:26:08 51°20.571 3°1.446 5.4 181 4.6 101930 90
2002-01-16 05:26:13 51°20.578 3°1.474 6.2 187 4.6 101930 90
2002-01-16 05:26:18 51°20.586 3°1.501 5.2 176 4.6 101930 90
2002-01-16 05:26:23 51°20.593 3°1.529 5.5 183 4.6 101930 90
2002-01-16 05:26:27 51°20.599 3°1.551 5.9 184 4.6 101930 90
2002-01-16 05:26:33 51°20.607 3°1.585 6.2 186 4.6 101930 90
2002-01-16 05:26:36 51°20.613 3°1.601 5.1 179 4.6 101930 90
2002-01-16 05:26:43 51°20.622 3°1.64 6.4 186 4.6 101930 90
2002-01-16 05:26:47 51°20.628 3°1.662 4.7 169 4.6 101930 90
2002-01-16 05:26:53 51°20.637 3°1.695 5.7 186 4.6 101930 90
2002-01-16 05:26:58 51°20.644 3°1.723 5.3 182 4.6 101930 90
2002-01-16 05:27:03 51°20.651 3°1.75 5.5 180 4.6 101930 90
2002-01-16 05:27:08 51°20.658 3°1.777 5.8 186 4.6 101930 90
2002-01-16 05:27:13 51°20.666 3°1.804 6 179 4.6 101930 90
2002-01-16 05:27:18 51°20.674 3°1.831 6.3 181 4.6 101930 90
2002-01-16 05:27:23 51°20.684 3°1.857 6.4 178 4.6 101930 90
2002-01-16 05:27:28 51°20.694 3°1.882 7.6 186 4.5 101920 90
2002-01-16 05:27:33 51°20.704 3°1.907 7.3 188 4.5 101920 90
2002-01-16 05:27:38 51°20.715 3°1.931 7 182 4.5 101930 90
2002-01-16 05:27:43 51°20.726 3°1.955 7.8 180 4.5 101930 90
2002-01-16 05:27:48 51°20.738 3°1.979 6.7 183 4.6 101930 90
2002-01-16 05:27:53 51°20.75 3°2.003 6.7 177 4.6 101930 90
2002-01-16 05:27:58 51°20.761 3°2.026 7.8 187 4.6 101920 90
2002-01-16 05:28:03 51°20.773 3°2.05 7.2 181 4.6 101920 90
2002-01-16 05:28:07 51°20.782 3°2.069 7.1 181 4.5 101920 90
2002-01-16 05:28:13 51°20.795 3°2.098 7.3 184 4.5 101920 90
2002-01-16 05:28:17 51°20.805 3°2.117 7 183 4.5 101930 90
2002-01-16 05:28:23 51°20.817 3°2.146 7.2 184 4.5 101930 90
2002-01-16 05:28:28 51°20.829 3°2.17 6.4 183 4.5 101920 90
2002-01-16 05:28:33 51°20.839 3°2.195 7 183 4.5 101920 90
2002-01-16 05:28:38 51°20.85 3°2.22 6.6 182 4.5 101930 90
2002-01-16 05:28:43 51°20.86 3°2.244 7.3 180 4.5 101930 90
2002-01-16 05:28:48 51°20.871 3°2.269 6.2 181 4.6 101930 90
2002-01-16 05:28:53 51°20.881 3°2.294 6.3 178 4.6 101930 90
2002-01-16 05:28:58 51°20.892 3°2.318 6.6 184 4.5 101930 90
2002-01-16 05:29:03 51°20.902 3°2.344 6.4 177 4.5 101930 90
2002-01-16 05:29:08 51°20.914 3°2.367 7.1 186 4.5 101930 90
2002-01-16 05:29:13 51°20.923 3°2.393 6.8 183 4.5 101930 90
2002-01-16 05:29:18 51°20.935 3°2.417 7.1 182 4.5 101930 90
2002-01-16 05:29:23 51°20.945 3°2.443 6.2 178 4.5 101930 90
2002-01-16 05:29:28 51°20.956 3°2.466 7 184 4.5 101930 90
2002-01-16 05:29:33 51°20.966 3°2.491 6.4 181 4.5 101930 90
2002-01-16 05:29:38 51°20.978 3°2.515 7 184 4.5 101930 90
2002-01-16 05:29:43 51°20.987 3°2.541 6.9 183 4.5 101930 90
2002-01-16 05:29:48 51°20.999 3°2.564 6.6 179 4.5 101930 90
2002-01-16 05:29:53 51°21.008 3°2.59 7.4 186 4.5 101930 90
2002-01-16 05:29:58 51°21.02 3°2.613 6.6 177 4.5 101930 90
2002-01-16 05:30:03 51°21.029 3°2.638 7.1 184 4.5 101930 90
2002-01-16 05:30:08 51°21.041 3°2.661 7.3 181 4.5 101920 90
2002-01-16 05:30:13 51°21.051 3°2.686 7.3 184 4.5 101920 90
2002-01-16 05:30:18 51°21.062 3°2.709 6.4 174 4.5 101930 90
2002-01-16 05:30:23 51°21.071 3°2.734 7.1 187 4.5 101930 90
2002-01-16 05:30:28 51°21.082 3°2.758 5.8 174 4.5 101930 90
2002-01-16 05:30:33 51°21.092 3°2.782 6.9 182 4.5 101930 90
2002-01-16 05:30:38 51°21.102 3°2.807 6.4 181 4.5 101920 90
2002-01-16 05:30:43 51°21.112 3°2.832 6.9 181 4.5 101920 90
2002-01-16 05:30:48 51°21.123 3°2.856 7 181 4.5 101930 90
2002-01-16 05:30:53 51°21.132 3°2.882 7 183 4.5 101930 90
2002-01-16 05:30:58 51°21.143 3°2.905 7 181 4.5 101930 90
2002-01-16 05:31:03 51°21.152 3°2.931 7.2 186 4.5 101930 90
2002-01-16 05:31:08 51°21.165 3°2.953 6.6 180 4.5 101930 90
2002-01-16 05:31:13 51°21.175 3°2.977 7.3 181 4.5 101930 90
2002-01-16 05:31:18 51°21.187 3°2.999 7.4 177 4.5 101930 90
2002-01-16 05:31:23 51°21.198 3°3.023 6.7 180 4.5 101930 90
2002-01-16 05:31:28 51°21.21 3°3.044 6.9 179 4.5 101920 90
2002-01-16 05:31:33 51°21.222 3°3.067 6.9 183 4.5 101920 90
2002-01-16 05:31:38 51°21.235 3°3.088 6.9 175 4.5 101930 90
2002-01-16 05:31:43 51°21.246 3°3.112 7.5 183 4.5 101930 90
2002-01-16 05:31:48 51°21.259 3°3.132 6.4 177 4.5 101920 90
2002-01-16 05:31:53 51°21.27 3°3.156 7.3 184 4.5 101920 90
2002-01-16 05:31:57 51°21.28 3°3.172 7 181 4.5 101920 90
2002-01-16 05:32:03 51°21.293 3°3.2 8 186 4.5 101920 90
2002-01-16 05:32:08 51°21.306 3°3.221 6.8 172 4.5 101920 90
2002-01-16 05:32:13 51°21.317 3°3.244 8 186 4.5 101920 90
2002-01-16 05:32:18 51°21.33 3°3.266 6.9 177 4.5 101930 90
2002-01-16 05:32:23 51°21.341 3°3.288 7.6 184 4.5 101930 90
2002-01-16 05:32:28 51°21.353 3°3.31 6.3 173 4.5 101920 90
2002-01-16 05:32:33 51°21.364 3°3.333 8.4 185 4.5 101920 90
2002-01-16 05:32:38 51°21.376 3°3.355 6.1 175 4.5 101930 90
2002-01-16 05:32:43 51°21.388 3°3.377 7.2 181 4.5 101930 90
2002-01-16 05:32:48 51°21.399 3°3.399 7.1 179 4.5 101920 90
2002-01-16 05:32:53 51°21.411 3°3.423 7.1 183 4.5 101920 90
2002-01-16 05:32:58 51°21.423 3°3.444 6.7 176 4.5 101920 90
2002-01-16 05:33:03 51°21.434 3°3.467 7.7 182 4.5 101920 90
2002-01-16 05:33:08 51°21.446 3°3.49 6.6 179 4.5 101920 90
2002-01-16 05:33:13 51°21.457 3°3.513 7.8 182 4.5 101920 90
2002-01-16 05:33:18 51°21.468 3°3.535 7 178 4.5 101920 90
2002-01-16 05:33:23 51°21.48 3°3.558 7.3 181 4.5 101920 90
2002-01-16 05:33:28 51°21.491 3°3.582 6.6 181 4.5 101920 90
2002-01-16 05:33:33 51°21.502 3°3.605 6.5 178 4.5 101920 90
2002-01-16 05:33:38 51°21.512 3°3.629 6.6 180 4.5 101930 90
2002-01-16 05:33:43 51°21.523 3°3.653 6.2 178 4.5 101930 90
2002-01-16 05:33:48 51°21.532 3°3.678 6.6 182 4.5 101920 90
2002-01-16 05:33:53 51°21.543 3°3.701 6.8 180 4.5 101920 90
2002-01-16 05:33:58 51°21.553 3°3.726 7.1 178 4.5 101920 90
2002-01-16 05:34:03 51°21.564 3°3.75 6.6 177 4.5 101920 90
2002-01-16 05:34:08 51°21.573 3°3.775 6.4 181 4.5 101930 90
2002-01-16 05:34:13 51°21.583 3°3.799 6.5 183 4.5 101930 90
2002-01-16 05:34:18 51°21.593 3°3.824 6.1 178 4.5 101920 90
2002-01-16 05:34:23 51°21.603 3°3.848 6.3 179 4.5 101920 90
2002-01-16 05:34:28 51°21.613 3°3.873 6.6 178 4.5 101930 90
2002-01-16 05:34:33 51°21.623 3°3.898 6.1 176 4.5 101930 90
2002-01-16 05:34:38 51°21.633 3°3.922 7.1 183 4.5 101930 90
2002-01-16 05:34:43 51°21.643 3°3.947 6.2 177 4.5 101930 90
2002-01-16 05:34:48 51°21.654 3°3.97 6.9 178 4.5 101910 90
2002-01-16 05:34:53 51°21.662 3°3.996 7.2 183 4.5 101910 90
2002-01-16 05:34:58 51°21.674 3°4.019 6.5 182 4.5 101930 90
2002-01-16 05:35:03 51°21.683 3°4.045 6.3 180 4.5 101930 90
2002-01-16 05:35:07 51°21.691 3°4.064 7.1 182 4.5 101930 90
2002-01-16 05:35:13 51°21.701 3°4.095 6.1 178 4.5 101930 90
2002-01-16 05:35:18 51°21.712 3°4.119 6.8 185 4.5 101930 90
2002-01-16 05:35:23 51°21.72 3°4.145 6.1 182 4.5 101930 90
2002-01-16 05:35:28 51°21.729 3°4.17 6.7 184 4.5 101920 90
2002-01-16 05:35:33 51°21.737 3°4.197 5.7 175 4.5 101920 90
2002-01-16 05:35:38 51°21.747 3°4.222 6.8 181 4.5 101920 90
2002-01-16 05:35:43 51°21.754 3°4.248 5.9 175 4.5 101920 90
2002-01-16 05:35:48 51°21.764 3°4.273 6.4 182 4.5 101930 90
2002-01-16 05:35:53 51°21.771 3°4.3 5.7 177 4.5 101930 90
2002-01-16 05:35:58 51°21.782 3°4.324 6.5 178 4.5 101930 90
2002-01-16 05:36:03 51°21.789 3°4.351 6.5 185 4.5 101930 90
2002-01-16 05:36:08 51°21.798 3°4.376 5.6 177 4.5 101930 90
2002-01-16 05:36:13 51°21.806 3°4.402 5.9 176 4.5 101930 90
2002-01-16 05:36:18 51°21.815 3°4.428 6.2 180 4.5 101930 90
2002-01-16 05:36:23 51°21.823 3°4.454 5.3 174 4.5 101930 90
2002-01-16 05:36:28 51°21.831 3°4.48 6.1 180 4.6 101920 90
2002-01-16 05:36:33 51°21.84 3°4.505 5 171 4.6 101920 90
2002-01-16 05:36:38 51°21.847 3°4.532 6.7 182 4.6 101930 90
2002-01-16 05:36:43 51°21.858 3°4.557 5.8 178 4.6 101930 90
2002-01-16 05:36:48 51°21.865 3°4.583 5.5 174 4.6 101920 90
2002-01-16 05:36:53 51°21.875 3°4.608 6.4 179 4.6 101920 90
2002-01-16 05:36:58 51°21.884 3°4.634 6.3 178 4.6 101930 90
2002-01-16 05:37:03 51°21.893 3°4.659 6.6 184 4.6 101930 90
2002-01-16 05:37:08 51°21.901 3°4.685 6 174 4.5 101920 90
2002-01-16 05:37:13 51°21.911 3°4.71 6.3 183 4.5 101920 90
2002-01-16 05:37:18 51°21.919 3°4.736 5.7 176 4.6 101930 90
2002-01-16 05:37:23 51°21.929 3°4.761 6.3 179 4.6 101930 90
2002-01-16 05:37:28 51°21.938 3°4.787 5.7 174 4.6 101920 90
2002-01-16 05:37:33 51°21.948 3°4.812 6.3 178 4.6 101920 90
2002-01-16 05:37:38 51°21.956 3°4.838 6.6 179 4.6 101920 90
2002-01-16 05:37:43 51°21.966 3°4.863 6 177 4.6 101920 90
2002-01-16 05:37:48 51°21.973 3°4.89 5.7 173 4.6 101920 90
2002-01-16 05:37:53 51°21.983 3°4.914 5.9 177 4.6 101920 90
2002-01-16 05:37:58 51°21.991 3°4.941 5.5 178 4.6 101920 90
2002-01-16 05:38:03 51°22.001 3°4.966 5.7 175 4.6 101920 90
2002-01-16 05:38:08 51°22.008 3°4.993 5.9 182 4.5 101930 90
2002-01-16 05:38:13 51°22.016 3°5.019 5.1 172 4.5 101930 90
2002-01-16 05:38:18 51°22.023 3°5.046 5.9 181 4.6 101920 90
2002-01-16 05:38:23 51°22.032 3°5.072 5.2 171 4.6 101920 90
2002-01-16 05:38:28 51°22.038 3°5.099 5.9 181 4.6 101920 90
2002-01-16 05:38:33 51°22.046 3°5.125 4.7 169 4.6 101920 90
2002-01-16 05:38:38 51°22.053 3°5.153 5.8 181 4.6 101930 90
2002-01-16 05:38:43 51°22.06 3°5.18 5.1 173 4.6 101930 90
2002-01-16 05:38:48 51°22.067 3°5.207 6.3 185 4.6 101930 90
2002-01-16 05:38:53 51°22.073 3°5.234 5.1 175 4.6 101930 90
2002-01-16 05:38:58 51°22.08 3°5.262 5.5 183 4.6 101930 90
2002-01-16 05:39:03 51°22.085 3°5.289 4.8 169 4.6 101930 90
2002-01-16 05:39:07 51°22.089 3°5.312 5.9 181 4.6 101940 90
2002-01-16 05:39:13 51°22.096 3°5.345 4.8 178 4.6 101940 90
2002-01-16 05:39:18 51°22.101 3°5.373 4.7 173 4.6 101940 90
2002-01-16 05:39:23 51°22.106 3°5.401 5.1 169 4.6 101940 90
2002-01-16 05:39:28 51°22.112 3°5.43 5.4 180 4.6 101930 90
2002-01-16 05:39:33 51°22.116 3°5.458 4.5 170 4.6 101930 90
2002-01-16 05:39:38 51°22.122 3°5.486 5.6 183 4.6 101930 90
2002-01-16 05:39:43 51°22.126 3°5.514 4.8 174 4.6 101930 90
2002-01-16 05:39:48 51°22.133 3°5.541 5.4 178 4.6 101940 90
2002-01-16 05:39:53 51°22.137 3°5.57 5.3 176 4.6 101940 90
2002-01-16 05:39:58 51°22.145 3°5.597 5 172 4.6 101930 90
2002-01-16 05:40:03 51°22.149 3°5.625 5.7 179 4.6 101930 90
2002-01-16 05:40:08 51°22.157 3°5.652 5.3 172 4.6 101940 90
2002-01-16 05:40:13 51°22.161 3°5.68 5.2 175 4.6 101940 90
2002-01-16 05:40:18 51°22.168 3°5.707 5.6 179 4.6 101930 90
2002-01-16 05:40:23 51°22.173 3°5.734 4.9 173 4.6 101930 90
2002-01-16 05:40:28 51°22.179 3°5.762 4.9 178 4.6 101930 90
2002-01-16 05:40:33 51°22.184 3°5.79 4.5 171 4.6 101930 90
2002-01-16 05:40:38 51°22.188 3°5.818 5.1 180 4.5 101930 90
2002-01-16 05:40:43 51°22.192 3°5.846 4.1 162 4.5 101930 90
2002-01-16 05:40:48 51°22.196 3°5.874 4.8 180 4.5 101930 90
2002-01-16 05:40:53 51°22.198 3°5.902 4.4 175 4.5 101930 90
2002-01-16 05:40:58 51°22.204 3°5.93 5.1 175 4.5 101940 90
2002-01-16 05:41:03 51°22.206 3°5.959 4.5 175 4.5 101940 90
2002-01-16 05:41:08 51°22.212 3°5.986 5 173 4.5 101930 90
2002-01-16 05:41:13 51°22.213 3°6.015 5 178 4.5 101930 90
2002-01-16 05:41:17 51°22.218 3°6.037 4.9 177 4.5 101930 90
2002-01-16 05:41:23 51°22.221 3°6.071 4.3 176 4.5 101930 90
2002-01-16 05:41:28 51°22.226 3°6.099 5.1 176 4.5 101930 90
2002-01-16 05:41:33 51°22.228 3°6.128 4.5 180 4.5 101930 90
2002-01-16 05:41:38 51°22.234 3°6.155 4.4 169 4.5 101940 90
2002-01-16 05:41:43 51°22.236 3°6.184 4.9 183 4.5 101940 90
2002-01-16 05:41:48 51°22.241 3°6.211 4.5 169 4.5 101930 90
2002-01-16 05:41:53 51°22.244 3°6.24 4.9 174 4.5 101930 90
2002-01-16 05:41:58 51°22.249 3°6.268 5 173 4.5 101930 90
2002-01-16 05:42:03 51°22.252 3°6.297 4.5 172 4.5 101930 90
2002-01-16 05:42:08 51°22.255 3°6.325 4.4 168 4.5 101930 90
2002-01-16 05:42:13 51°22.26 3°6.354 4.9 174 4.5 101930 90
2002-01-16 05:42:18 51°22.263 3°6.383 4.3 164 4.5 101930 90
2002-01-16 05:42:23 51°22.268 3°6.411 3.9 165 4.5 101930 90
2002-01-16 05:42:28 51°22.269 3°6.44 3.6 166 4.5 101930 91
2002-01-16 05:42:33 51°22.274 3°6.469 4.3 170 4.5 101930 91
2002-01-16 05:42:38 51°22.274 3°6.498 3.5 166 4.5 101930 91
2002-01-16 05:42:43 51°22.278 3°6.526 3.8 165 4.5 101930 91
2002-01-16 05:42:48 51°22.279 3°6.555 4 173 4.5 101930 91
2002-01-16 05:42:53 51°22.281 3°6.584 4.2 173 4.5 101930 91
2002-01-16 05:42:58 51°22.284 3°6.613 4.3 173 4.5 101930 91
2002-01-16 05:43:03 51°22.286 3°6.642 4.2 173 4.5 101930 91
2002-01-16 05:43:08 51°22.288 3°6.671 4.2 168 4.5 101930 91
2002-01-16 05:43:13 51°22.289 3°6.699 4 175 4.5 101930 91
2002-01-16 05:43:18 51°22.29 3°6.728 3.4 165 4.5 101930 91
2002-01-16 05:43:23 51°22.293 3°6.757 3.5 164 4.5 101930 91
2002-01-16 05:43:28 51°22.294 3°6.786 4.3 176 4.5 101930 91
2002-01-16 05:43:33 51°22.297 3°6.815 4 169 4.5 101930 91
2002-01-16 05:43:38 51°22.299 3°6.843 4.1 175 4.5 101930 91
2002-01-16 05:43:43 51°22.3 3°6.872 4.4 177 4.5 101930 91
2002-01-16 05:43:48 51°22.304 3°6.901 4.1 163 4.5 101930 91
2002-01-16 05:43:53 51°22.306 3°6.93 4.2 179 4.5 101930 91
2002-01-16 05:43:58 51°22.308 3°6.958 3.5 158 4.5 101930 91
2002-01-16 05:44:03 51°22.311 3°6.987 4.4 173 4.5 101930 91
2002-01-16 05:44:08 51°22.313 3°7.016 3.7 163 4.5 101930 91
2002-01-16 05:44:13 51°22.316 3°7.044 4.1 168 4.5 101930 91
2002-01-16 05:44:18 51°22.318 3°7.072 4.2 181 4.5 101920 91
2002-01-16 05:44:23 51°22.322 3°7.101 3.9 158 4.5 101920 91
2002-01-16 05:44:28 51°22.325 3°7.129 5.1 183 4.5 101930 91
2002-01-16 05:44:33 51°22.326 3°7.158 4 170 4.5 101930 91
2002-01-16 05:44:37 51°22.328 3°7.181 5.2 180 4.5 101930 91
2002-01-16 05:44:43 51°22.331 3°7.215 3.8 170 4.5 101930 91
2002-01-16 05:44:48 51°22.334 3°7.244 4.3 175 4.5 101930 91
2002-01-16 05:44:53 51°22.336 3°7.272 3.9 171 4.5 101930 91
2002-01-16 05:44:58 51°22.338 3°7.301 4.2 173 4.5 101930 91
2002-01-16 05:45:03 51°22.341 3°7.329 4.2 178 4.5 101930 91
2002-01-16 05:45:08 51°22.343 3°7.358 4 161 4.5 101930 91
2002-01-16 05:45:13 51°22.345 3°7.387 4.3 173 4.5 101930 91
2002-01-16 05:45:18 51°22.347 3°7.415 4.6 172 4.5 101930 91
2002-01-16 05:45:23 51°22.35 3°7.444 4.2 165 4.5 101930 91
2002-01-16 05:45:28 51°22.353 3°7.472 4.6 176 4.5 101930 91
2002-01-16 05:45:33 51°22.356 3°7.501 3.9 173 4.5 101930 91
2002-01-16 05:45:38 51°22.358 3°7.529 4.4 178 4.5 101930 91
2002-01-16 05:45:43 51°22.36 3°7.558 3.9 175 4.5 101930 91
2002-01-16 05:45:48 51°22.363 3°7.586 4.4 172 4.5 101930 91
2002-01-16 05:45:53 51°22.366 3°7.615 3.8 178 4.5 101930 91
2002-01-16 05:45:58 51°22.368 3°7.643 3.9 166 4.5 101920 91
2002-01-16 05:46:03 51°22.371 3°7.672 4.5 175 4.5 101920 91
2002-01-16 05:46:08 51°22.373 3°7.701 3.8 166 4.5 101930 91
2002-01-16 05:46:13 51°22.375 3°7.73 4.1 175 4.5 101930 91
2002-01-16 05:46:18 51°22.378 3°7.758 3.9 174 4.5 101930 91
2002-01-16 05:46:23 51°22.38 3°7.787 4.6 173 4.5 101930 91
2002-01-16 05:46:28 51°22.383 3°7.815 4.2 171 4.5 101930 91
2002-01-16 05:46:33 51°22.386 3°7.844 3.4 165 4.5 101930 91
2002-01-16 05:46:38 51°22.388 3°7.872 4.6 184 4.5 101930 91
2002-01-16 05:46:43 51°22.392 3°7.9 4 163 4.5 101930 91
2002-01-16 05:46:48 51°22.394 3°7.929 4.7 181 4.5 101930 91
2002-01-16 05:46:53 51°22.397 3°7.957 3.8 164 4.5 101930 91
2002-01-16 05:46:58 51°22.398 3°7.986 4.3 181 4.5 101930 91
2002-01-16 05:47:03 51°22.4 3°8.014 3.1 162 4.5 101930 91
2002-01-16 05:47:07 51°22.4 3°8.037 4.1 177 4.5 101930 91
2002-01-16 05:47:13 51°22.401 3°8.07 3.2 159 4.5 101930 91
2002-01-16 05:47:18 51°22.401 3°8.099 3.9 169 4.5 101930 91
2002-01-16 05:47:23 51°22.403 3°8.127 3.4 167 4.5 101930 91
2002-01-16 05:47:28 51°22.402 3°8.155 3.6 164 4.5 101930 91
2002-01-16 05:47:33 51°22.403 3°8.184 3.9 167 4.5 101930 91
2002-01-16 05:47:38 51°22.403 3°8.212 3.5 162 4.5 101930 91
2002-01-16 05:47:43 51°22.404 3°8.241 4 176 4.5 101930 91
2002-01-16 05:47:48 51°22.404 3°8.269 3.5 166 4.5 101930 91
2002-01-16 05:47:53 51°22.404 3°8.298 3.5 166 4.5 101930 91
2002-01-16 05:47:58 51°22.405 3°8.326 3.7 170 4.5 101930 91
2002-01-16 05:48:03 51°22.406 3°8.355 3.6 162 4.5 101930 91
2002-01-16 05:48:08 51°22.406 3°8.384 3.4 171 4.5 101930 91
2002-01-16 05:48:13 51°22.408 3°8.412 3.3 158 4.5 101930 91
2002-01-16 05:48:18 51°22.407 3°8.441 3.5 165 4.5 101930 91
2002-01-16 05:48:23 51°22.409 3°8.47 3.3 158 4.5 101930 91
2002-01-16 05:48:28 51°22.408 3°8.498 3.8 171 4.5 101930 91
2002-01-16 05:48:33 51°22.41 3°8.527 3.3 153 4.5 101930 91
2002-01-16 05:48:38 51°22.41 3°8.556 4 173 4.5 101930 91
2002-01-16 05:48:43 51°22.411 3°8.584 3.2 163 4.5 101930 91
2002-01-16 05:48:47 51°22.411 3°8.607 3.6 169 4.5 101930 91
2002-01-16 05:48:53 51°22.412 3°8.642 3.2 156 4.5 101930 91
2002-01-16 05:48:58 51°22.411 3°8.67 3.7 173 4.5 101930 91
2002-01-16 05:49:03 51°22.411 3°8.699 3.2 152 4.5 101930 91
2002-01-16 05:49:07 51°22.41 3°8.722 3.8 173 4.5 101940 91
2002-01-16 05:49:13 51°22.41 3°8.756 3 158 4.5 101940 91
2002-01-16 05:49:18 51°22.41 3°8.784 3.4 171 4.5 101930 91
2002-01-16 05:49:23 51°22.41 3°8.813 3.5 155 4.5 101930 91
2002-01-16 05:49:28 51°22.408 3°8.841 3.8 159 4.5 101930 91